Weather History for Atlanta Fulton, GA

Change the Weather History Date:

Thursday, August 29, 2013

  Actual Average Record
Temperature  
Mean Temperature 82 °F 77 °F  
Max Temperature 91 °F 87 °F 95 °F (1998)
Min Temperature 73 °F 68 °F 61 °F (2014)
Cooling Degree Days 17 12  
Month to date cooling degree days 355 404  
Year to date cooling degree days 1290 1413  
Since 1 June cooling degree days 1127 1213  
Growing Degree Days 32 (Base 50)    
Moisture  
Dew Point 71 °F    
Average Humidity 72    
Maximum Humidity 87    
Minimum Humidity 56    
Precipitation  
Precipitation 0.00 in 0.11 in 1.41 in (2001)
Month to date precipitation 3.20 4.51  
Year to date precipitation 33.18 35.19  
Sea Level Pressure  
Sea Level Pressure 29.97 in    
Wind  
Wind Speed 4 mph (NW)    
Max Wind Speed 14 mph    
Max Gust Speed 20 mph    
Visibility 9 miles    
Events      
T = Trace of Precipitation, MM = Missing Value Source: NWS Daily Summary

Daily Weather History Graph

Daily Weather History Graph

Search for Another Location

Airport:

Trip Planner

Search our weather history database for the weather conditions in past years. The results will help you decide how hot, cold, wet, or windy it might be!

Date:

Astronomy

Aug. 29, 2013 Rise Set
Actual Time 7:09 AM EDT 8:07 PM EDT
Civil Twilight 6:44 AM EDT 8:32 PM EDT
Nautical Twilight 6:14 AM EDT 9:03 PM EDT
Astronomical Twilight 5:42 AM EDT 9:34 PM EDT
Moon 1:09 AM EDT (8/29) 3:26 PM EDT (8/29)
Length of Visible Light 13h 48m
Length of Day
12h 57m
Last Quarter, 38% of the Moon is Illuminated
Aug 29
Last Quarter
Sep 5
New
Sep 12
First Quarter
Sep 19
Full
Sep 26
Last Quarter

Hourly Weather History & Observations

Time (EDT) Temp. Heat Index Dew Point Humidity Pressure Visibility Wind Dir Wind Speed Gust Speed Precip Events Conditions
12:53 AM 73.9 °F - 70.0 °F 87% 30.01 in 8.0 mi Calm Calm - N/A   Clear
1:53 AM 75.9 °F - 70.0 °F 82% 29.99 in 9.0 mi Calm Calm - N/A   Clear
2:53 AM 75.9 °F - 70.0 °F 82% 29.98 in 9.0 mi Calm Calm - N/A   Clear
3:53 AM 75.0 °F - 70.0 °F 84% 29.97 in 9.0 mi Calm Calm - N/A   Clear
4:53 AM 73.9 °F - 69.1 °F 85% 29.97 in 9.0 mi Calm Calm - N/A   Clear
5:53 AM 73.9 °F - 69.1 °F 85% 29.99 in 8.0 mi Calm Calm - N/A   Clear
6:53 AM 73.0 °F - 68.0 °F 84% 30.00 in 9.0 mi Calm Calm - N/A   Clear
7:53 AM 73.9 °F - 69.1 °F 85% 30.01 in 7.0 mi Variable 3.5 mph - N/A   Clear
8:53 AM 75.9 °F - 69.1 °F 79% 30.02 in 8.0 mi WNW 3.5 mph - N/A   Clear
9:53 AM 80.1 °F 83.2 °F 70.0 °F 71% 30.02 in 10.0 mi NW 10.4 mph - N/A   Clear
10:53 AM 82.9 °F 87.0 °F 70.0 °F 65% 30.01 in 10.0 mi NW 11.5 mph - N/A   Clear
11:53 AM 86.0 °F 90.7 °F 70.0 °F 59% 30.01 in 10.0 mi NW 11.5 mph 16.1 mph N/A   Clear
12:53 PM 88.0 °F 93.8 °F 71.1 °F 57% 29.99 in 10.0 mi WNW 12.7 mph 19.6 mph N/A   Clear
1:53 PM 88.0 °F 93.8 °F 71.1 °F 57% 29.97 in 10.0 mi NW 6.9 mph - N/A   Partly Cloudy
2:53 PM 89.1 °F 96.0 °F 72.0 °F 57% 29.96 in 10.0 mi NNW 4.6 mph - N/A   Mostly Cloudy
3:53 PM 90.0 °F 96.4 °F 71.1 °F 54% 29.94 in 10.0 mi NNW 9.2 mph - N/A   Scattered Clouds
4:53 PM 90.0 °F 96.4 °F 71.1 °F 54% 29.94 in 10.0 mi North 6.9 mph - N/A   Mostly Cloudy
5:53 PM 89.1 °F 95.0 °F 71.1 °F 55% 29.93 in 10.0 mi WNW 8.1 mph - N/A   Partly Cloudy
6:53 PM 88.0 °F 94.7 °F 72.0 °F 59% 29.93 in 10.0 mi WNW 5.8 mph - N/A   Clear
7:53 PM 86.0 °F 92.2 °F 72.0 °F 63% 29.93 in 10.0 mi WNW 3.5 mph - N/A   Clear
8:53 PM 82.9 °F 88.8 °F 73.0 °F 72% 29.94 in 10.0 mi Calm Calm - N/A   Clear
9:53 PM 79.0 °F - 73.9 °F 84% 29.96 in 10.0 mi Calm Calm - N/A   Clear
10:53 PM 80.1 °F 84.2 °F 73.0 °F 79% 29.96 in 10.0 mi Calm Calm - N/A   Partly Cloudy
11:53 PM 80.1 °F 83.8 °F 72.0 °F 76% 29.95 in 10.0 mi Calm Calm - N/A   Clear